contact:dominique.lefevre@mio.osupytheas.fr, maurice.libes@osupytheas.fr
Project:EMSO Ligure-ouest http://www.emso-fr.org/EMSO-France
Sensor Aquadopp, line 13 Serial AQD14315 
DOI : "https://doi.org/10.17882/74513; https://doi.org/10.17882/83244" 
Title:EMSO Ligure Ouest : Data ligne ALBATROSS capteur AQUADOPP - deploiement 2021
Id,Date,Profondeur,Latitude,Longitude,X_East,Y_North,Z_Up,Amplitude_X,Amplitude_Y,Amplitude_Z,Batterie,SoundSpeed,Heading,Pitch,Roll,Pressure,Temperature,Speed,Direction
, , m, degrees North, degrees East, m.s-1, m.s-1,m.s-1, 1, 1, 1, Volt, m.s-1, degree, degree, degree, dbar, degree_C, m.s-1, degree
09,2022-02-25T21:30:00,2000.0,42.79,6.0312,-0.036,0.004,-0.015,69.0,62.0,69.0,12.1,1504.6,241.5,-1.1,1.2,1990.492,13.27,0.036,276.3
09,2022-02-25T22:00:00,2000.0,42.79,6.0312,-0.041,0.013,-0.001,68.0,66.0,67.0,12.1,1504.6,246.5,-0.9,1.2,1990.493,13.27,0.043,287.6
09,2022-02-25T22:30:00,2000.0,42.79,6.0312,-0.021,0.015,-0.014,69.0,64.0,68.0,12.1,1504.6,247.9,-1.0,1.3,1990.525,13.27,0.025,305.5
09,2022-02-25T23:00:00,2000.0,42.79,6.0312,-0.016,0.014,-0.002,68.0,64.0,71.0,12.1,1504.6,243.5,-1.1,1.2,1990.511,13.27,0.021,311.2
09,2022-02-26T00:00:00,2000.0,42.79,6.0312,-0.033,0.01,-0.006,70.0,65.0,69.0,12.1,1504.6,244.6,-1.1,1.3,1990.575,13.27,0.034,286.9
09,2022-02-26T00:30:00,2000.0,42.79,6.0312,-0.028,0.018,-0.018,68.0,67.0,67.0,12.1,1504.6,248.3,-1.2,1.2,1990.593,13.27,0.033,302.7
09,2022-02-26T01:00:00,2000.0,42.79,6.0312,-0.03,0.01,-0.015,67.0,64.0,67.0,12.1,1504.6,245.9,-0.8,1.2,1990.539,13.27,0.031,288.4
09,2022-02-26T01:30:00,2000.0,42.79,6.0312,-0.026,0.016,-0.012,69.0,65.0,67.0,12.1,1504.6,248.8,-1.0,1.3,1990.593,13.27,0.03,301.6
09,2022-02-26T02:00:00,2000.0,42.79,6.0312,-0.028,0.017,-0.01,71.0,68.0,69.0,12.1,1504.6,247.6,-0.9,1.3,1990.599,13.27,0.032,301.3
09,2022-02-26T02:30:00,2000.0,42.79,6.0312,-0.037,0.018,0.007,70.0,63.0,66.0,12.1,1504.6,252.7,-1.4,1.2,1990.598,13.27,0.041,295.9
09,2022-02-26T03:00:00,2000.0,42.79,6.0312,-0.03,0.016,0.005,70.0,65.0,69.0,12.1,1504.6,242.9,-1.2,1.2,1990.616,13.27,0.034,298.1
09,2022-02-26T03:30:00,2000.0,42.79,6.0312,-0.03,0.002,0.005,67.0,66.0,68.0,12.1,1504.6,246.4,-0.9,1.3,1990.669,13.27,0.03,273.8
09,2022-02-26T04:00:00,2000.0,42.79,6.0312,-0.036,0.022,-0.002,69.0,67.0,68.0,12.1,1504.6,245.8,-1.2,1.3,1990.658,13.27,0.042,301.4
09,2022-02-26T04:30:00,2000.0,42.79,6.0312,-0.025,0.019,-0.024,70.0,64.0,67.0,12.1,1504.6,243.4,-0.8,1.3,1990.647,13.27,0.031,307.2
09,2022-02-26T05:00:00,2000.0,42.79,6.0312,-0.02,0.008,-0.026,69.0,65.0,69.0,12.1,1504.6,248.3,-1.2,1.2,1990.669,13.27,0.021,291.8
09,2022-02-26T05:30:00,2000.0,42.79,6.0312,-0.018,0.002,-0.024,68.0,67.0,63.0,12.1,1504.6,239.7,-0.9,1.2,1990.662,13.27,0.018,276.3
09,2022-02-26T06:00:00,2000.0,42.79,6.0312,-0.029,0.016,-0.032,68.0,64.0,69.0,12.1,1504.6,243.0,-1.2,1.2,1990.674,13.27,0.033,298.9
09,2022-02-26T06:30:00,2000.0,42.79,6.0312,-0.004,0.009,-0.013,66.0,67.0,67.0,12.1,1504.6,234.7,-1.1,1.2,1990.633,13.27,0.009,336.0
09,2022-02-26T07:00:00,2000.0,42.79,6.0312,-0.032,0.0,-0.001,68.0,65.0,72.0,12.1,1504.6,233.0,-1.0,1.2,1990.628,13.27,0.032,270.0
09,2022-02-26T07:30:00,2000.0,42.79,6.0312,-0.026,0.011,0.0,69.0,63.0,69.0,12.1,1504.6,240.1,-1.0,1.3,1990.573,13.27,0.028,292.9
09,2022-02-26T08:00:00,2000.0,42.79,6.0312,-0.036,-0.014,-0.008,66.0,63.0,67.0,12.1,1504.6,236.1,-0.9,1.3,1990.609,13.27,0.038,248.8
09,2022-02-26T08:30:00,2000.0,42.79,6.0312,-0.034,0.002,-0.017,69.0,65.0,68.0,12.1,1504.6,238.4,-1.1,1.2,1990.614,13.27,0.034,273.4
09,2022-02-26T09:00:00,2000.0,42.79,6.0312,-0.024,-0.005,-0.031,70.0,67.0,68.0,12.1,1504.6,238.6,-0.9,1.3,1990.575,13.27,0.024,258.2
09,2022-02-26T09:30:00,2000.0,42.79,6.0312,-0.037,0.016,0.012,69.0,62.0,67.0,12.1,1504.6,238.2,-1.0,1.4,1990.551,13.27,0.04,293.4
09,2022-02-26T10:00:00,2000.0,42.79,6.0312,-0.032,0.011,-0.028,70.0,63.0,68.0,12.1,1504.6,239.1,-1.1,1.3,1990.536,13.27,0.033,289.0
09,2022-02-26T10:30:00,2000.0,42.79,6.0312,-0.021,0.0,-0.04,68.0,64.0,66.0,12.1,1504.6,235.4,-1.0,1.3,1990.551,13.27,0.021,270.0
09,2022-02-26T11:00:00,2000.0,42.79,6.0312,-0.029,-0.011,0.0,68.0,65.0,67.0,12.1,1504.6,234.1,-1.0,1.3,1990.55,13.27,0.031,249.2
09,2022-02-26T11:30:00,2000.0,42.79,6.0312,-0.019,-0.014,0.005,68.0,65.0,66.0,12.1,1504.6,235.3,-1.1,1.2,1990.57,13.27,0.023,233.6
09,2022-02-26T12:00:00,2000.0,42.79,6.0312,-0.023,-0.013,-0.009,67.0,68.0,68.0,12.1,1504.6,235.7,-1.1,1.3,1990.572,13.27,0.026,240.5
09,2022-02-26T13:00:00,2000.0,42.79,6.0312,-0.044,0.023,0.019,68.0,65.0,69.0,12.1,1504.6,232.9,-0.9,1.2,1990.535,13.27,0.049,297.6
09,2022-02-26T13:30:00,2000.0,42.79,6.0312,-0.033,0.002,0.001,69.0,64.0,71.0,12.1,1504.6,232.4,-1.1,1.3,1990.569,13.27,0.033,273.5
09,2022-02-26T14:00:00,2000.0,42.79,6.0312,-0.045,0.019,0.036,68.0,63.0,66.0,12.1,1504.6,235.7,-1.1,1.2,1990.538,13.27,0.048,292.9
09,2022-02-26T14:30:00,2000.0,42.79,6.0312,-0.048,0.008,0.025,67.0,63.0,66.0,12.1,1504.6,234.9,-1.1,1.2,1990.535,13.27,0.048,279.5
09,2022-02-26T15:00:00,2000.0,42.79,6.0312,-0.021,-0.015,-0.008,71.0,64.0,66.0,12.1,1504.6,233.5,-1.1,1.2,1990.556,13.27,0.025,234.5
09,2022-02-26T15:30:00,2000.0,42.79,6.0312,-0.026,-0.001,-0.005,72.0,66.0,68.0,12.1,1504.6,232.9,-1.1,1.3,1990.619,13.27,0.026,267.8
09,2022-02-26T16:00:00,2000.0,42.79,6.0312,-0.014,0.02,-0.012,68.0,65.0,68.0,12.1,1504.6,234.3,-1.1,1.3,1990.54,13.27,0.024,325.0
09,2022-02-26T16:30:00,2000.0,42.79,6.0312,-0.031,-0.008,0.003,69.0,62.0,68.0,12.1,1504.6,233.9,-1.2,1.3,1990.592,13.27,0.032,255.5
09,2022-02-26T17:00:00,2000.0,42.79,6.0312,-0.033,0.005,-0.002,70.0,63.0,67.0,12.1,1504.6,236.1,-1.2,1.3,1990.575,13.27,0.033,278.6
09,2022-02-26T17:30:00,2000.0,42.79,6.0312,-0.015,0.005,0.009,70.0,63.0,68.0,12.1,1504.6,236.8,-1.2,1.3,1990.576,13.27,0.015,288.4
09,2022-02-26T18:00:00,2000.0,42.79,6.0312,-0.027,0.002,-0.015,69.0,62.0,64.0,12.1,1504.6,237.6,-1.2,1.3,1990.608,13.27,0.027,274.2
09,2022-02-26T18:30:00,2000.0,42.79,6.0312,-0.016,-0.001,-0.025,68.0,64.0,65.0,12.1,1504.6,236.5,-1.2,1.3,1990.576,13.27,0.016,266.4
09,2022-02-26T19:00:00,2000.0,42.79,6.0312,-0.025,-0.001,-0.017,70.0,65.0,67.0,12.1,1504.6,233.7,-1.2,1.3,1990.469,13.27,0.025,267.7
09,2022-02-26T19:30:00,2000.0,42.79,6.0312,-0.026,-0.011,-0.007,71.0,64.0,69.0,12.1,1504.6,235.0,-1.1,1.3,1990.542,13.27,0.028,247.1
09,2022-02-26T20:00:00,2000.0,42.79,6.0312,-0.012,0.003,0.029,67.0,62.0,63.0,12.1,1504.6,230.3,-1.2,1.2,1990.512,13.27,0.012,284.0
09,2022-02-26T20:30:00,2000.0,42.79,6.0312,-0.027,-0.006,-0.018,68.0,67.0,65.0,12.1,1504.6,228.8,-1.2,1.3,1990.487,13.27,0.027,257.5
09,2022-02-26T21:00:00,2000.0,42.79,6.0312,-0.021,-0.006,0.0,65.0,63.0,67.0,12.1,1504.6,227.2,-1.0,1.2,1990.5,13.27,0.021,254.1
